Location: Arroyo de Valdeoliva
(40.1604°N, 4.9878°W)
Time: 12:37:32
(UTC+00:00)

ARIANE 6 FM1 Upper Stage - Pass Details

Date: 15 February 2026
Orbit: 523 x 607 km, 62.0° (Epoch: 8 March)

Event Time Altitude Azimuth Distance (km) Brightness Sun altitude
Rises 20:55:06 0° 315° (NW) 2,657 6.9 -34.7°
Reaches altitude 10° 20:57:24 10° 306° (NW) 1,768 5.9 -35.2°
Enters shadow 20:57:43 12° 304° (NW) 1,653 5.7 -35.2°
